TimeMDT,TemperatureF,Dew PointF,Humidity,Sea Level PressureIn,VisibilityMPH,Wind Direction,Wind SpeedMPH,Gust SpeedMPH,PrecipitationIn,Events,Conditions,WindDirDegrees,DateUTC
12:53 AM,48.9,30.0,48,30.04,10.0,South,15.0,-,N/A,,Clear,190,2013-09-19 06:53:00
1:53 AM,46.9,30.0,52,30.05,10.0,South,11.5,-,N/A,,Clear,190,2013-09-19 07:53:00
2:53 AM,46.0,30.0,54,30.06,10.0,South,13.8,-,N/A,,Clear,190,2013-09-19 08:53:00
3:53 AM,44.1,30.0,58,30.05,10.0,South,10.4,-,N/A,,Clear,180,2013-09-19 09:53:00
4:53 AM,43.0,30.0,60,30.06,10.0,South,9.2,-,N/A,,Clear,180,2013-09-19 10:53:00
5:53 AM,45.0,30.0,56,30.07,10.0,South,11.5,-,N/A,,Clear,190,2013-09-19 11:53:00
6:53 AM,43.0,30.0,60,30.09,10.0,South,9.2,-,N/A,,Clear,190,2013-09-19 12:53:00
7:53 AM,37.9,28.9,70,30.16,10.0,SE,6.9,-,N/A,,Clear,130,2013-09-19 13:53:00
8:53 AM,50.0,30.9,48,30.14,10.0,East,4.6,-,N/A,,Clear,100,2013-09-19 14:53:00
9:53 AM,54.0,32.0,43,30.14,10.0,ENE,5.8,-,N/A,,Clear,60,2013-09-19 15:53:00
10:53 AM,57.9,33.1,39,30.14,10.0,Variable,5.8,-,N/A,,Clear,0,2013-09-19 16:53:00
11:06 AM,59.0,33.8,39,30.22,2.5,ENE,4.6,-,N/A,,Haze,60,2013-09-19 17:06:00
11:15 AM,59.0,32.0,36,30.21,10.0,NNE,3.5,-,N/A,,Clear,20,2013-09-19 17:15:00
11:53 AM,62.1,33.1,34,30.12,10.0,NNE,8.1,-,N/A,,Clear,30,2013-09-19 17:53:00
12:53 PM,63.0,30.9,30,30.10,10.0,NE,3.5,-,N/A,,Clear,40,2013-09-19 18:53:00
1:53 PM,64.9,32.0,29,30.09,10.0,East,4.6,-,N/A,,Clear,80,2013-09-19 19:53:00
2:53 PM,69.1,33.1,26,30.05,10.0,North,6.9,-,N/A,,Clear,10,2013-09-19 20:53:00
3:53 PM,69.1,30.9,24,30.04,10.0,NE,8.1,-,N/A,,Clear,50,2013-09-19 21:53:00
4:53 PM,70.0,30.0,23,30.01,10.0,ENE,6.9,-,N/A,,Clear,60,2013-09-19 22:53:00
5:53 PM,70.0,30.9,24,30.00,10.0,NE,10.4,-,N/A,,Clear,40,2013-09-19 23:53:00
6:53 PM,66.9,30.9,26,30.00,10.0,NE,6.9,-,N/A,,Clear,50,2013-09-20 00:53:00
7:53 PM,57.0,32.0,39,30.02,10.0,East,8.1,-,N/A,,Clear,80,2013-09-20 01:53:00
8:53 PM,55.0,34.0,45,30.00,10.0,East,9.2,-,N/A,,Clear,100,2013-09-20 02:53:00
9:53 PM,52.0,30.9,45,30.00,10.0,East,9.2,-,N/A,,Clear,90,2013-09-20 03:53:00
10:53 PM,52.0,27.0,38,29.99,10.0,ESE,9.2,-,N/A,,Clear,110,2013-09-20 04:53:00
11:53 PM,43.0,26.1,51,29.99,10.0,WSW,5.8,-,N/A,,Clear,240,2013-09-20 05:53:00